When you browse on this site, cookies collect data to enhance your experience and personalize the content and advertising you see.
Visit our Privacy Policy to learn more. By continuing to use the site, you agree to this use of cookies and data.

Stündliche Wetter Ulanovka

Heute, 3 Juli, Freitag

Zeit Temperatur Niederschläge Wind Luftdruck Luftfeuchtigkeit
00:00 +18°C° 0.4 mm 3 m/S 741 mmHg 93%
01:00 +18°C° 0 mm 3 m/S 741 mmHg 93%
02:00 +18°C° 0 mm 3 m/S 741 mmHg 94%
03:00 +18°C° 0 mm 3 m/S 741 mmHg 95%
04:00 +19°C° 0 mm 3 m/S 741 mmHg 94%
05:00 +19°C° 0 mm 3 m/S 741 mmHg 94%
06:00 +20°C° 0 mm 4 m/S 741 mmHg 93%
07:00 +21°C° 0.4 mm 4 m/S 741 mmHg 91%
08:00 +22°C° 0.4 mm 3 m/S 742 mmHg 88%
09:00 +25°C° 0 mm 3 m/S 742 mmHg 84%
10:00 +25°C° 1.6 mm 3 m/S 742 mmHg 81%
11:00 +26°C° 1.6 mm 4 m/S 742 mmHg 78%
12:00 +27°C° 1.6 mm 4 m/S 742 mmHg 75%
13:00 +27°C° 1.1 mm 4 m/S 742 mmHg 75%
14:00 +27°C° 1.1 mm 3 m/S 742 mmHg 75%
15:00 +27°C° 0 mm 3 m/S 743 mmHg 79%
16:00 +27°C° 0.8 mm 3 m/S 742 mmHg 80%
17:00 +27°C° 0.8 mm 3 m/S 742 mmHg 81%
18:00 +26°C° 0.8 mm 3 m/S 742 mmHg 82%
19:00 +25°C° 0.1 mm 3 m/S 742 mmHg 85%
20:00 +24°C° 0.1 mm 3 m/S 742 mmHg 87%
21:00 +23°C° 0.1 mm 2 m/S 743 mmHg 90%
22:00 +21°C° 0.1 mm 2 m/S 742 mmHg 90%
23:00 +21°C° 0.1 mm 2 m/S 742 mmHg 91%

Morgen, 4 Juli, Samstag

Zeit Temperatur Niederschläge Wind Luftdruck Luftfeuchtigkeit
00:00 +20°C° 0.1 mm 2 m/S 742 mmHg 91%
01:00 +20°C° 0 mm 2 m/S 742 mmHg 91%
02:00 +19°C° 0 mm 2 m/S 742 mmHg 91%
03:00 +19°C° 0 mm 3 m/S 742 mmHg 91%
04:00 +19°C° 0 mm 3 m/S 742 mmHg 91%
05:00 +19°C° 0 mm 3 m/S 742 mmHg 90%
06:00 +20°C° 0 mm 3 m/S 742 mmHg 89%
07:00 +21°C° 0 mm 3 m/S 742 mmHg 86%
08:00 +24°C° 0 mm 3 m/S 742 mmHg 83%
09:00 +25°C° 0 mm 3 m/S 742 mmHg 80%
10:00 +26°C° 0.2 mm 3 m/S 742 mmHg 76%
11:00 +27°C° 0.2 mm 3 m/S 742 mmHg 72%
12:00 +28°C° 0.2 mm 4 m/S 741 mmHg 68%
13:00 +28°C° 0.4 mm 3 m/S 741 mmHg 69%
14:00 +28°C° 0.4 mm 3 m/S 741 mmHg 70%
15:00 +28°C° 0.4 mm 3 m/S 741 mmHg 72%
16:00 +28°C° 0.8 mm 3 m/S 741 mmHg 75%
17:00 +27°C° 0.8 mm 2 m/S 741 mmHg 78%
18:00 +27°C° 0.8 mm 2 m/S 741 mmHg 82%
19:00 +26°C° 0.1 mm 2 m/S 741 mmHg 83%
20:00 +24°C° 0.1 mm 2 m/S 741 mmHg 85%
21:00 +23°C° 0.1 mm 2 m/S 741 mmHg 87%
22:00 +23°C° 0.3 mm 2 m/S 741 mmHg 88%
23:00 +23°C° 0.3 mm 2 m/S 741 mmHg 89%

übermorgen, 5 Juli, Sonntag

Zeit Temperatur Niederschläge Wind Luftdruck Luftfeuchtigkeit
00:00 +21°C° 0.3 mm 2 m/S 741 mmHg 89%
01:00 +21°C° 0 mm 2 m/S 741 mmHg 90%
02:00 +20°C° 0 mm 2 m/S 741 mmHg 91%
03:00 +21°C° 0 mm 1 m/S 741 mmHg 91%
04:00 +21°C° 0.1 mm 1 m/S 741 mmHg 91%
05:00 +22°C° 0.1 mm 1 m/S 741 mmHg 91%
06:00 +22°C° 0.1 mm 1 m/S 741 mmHg 91%
07:00 +22°C° 0.4 mm 1 m/S 741 mmHg 91%
08:00 +22°C° 0.4 mm 1 m/S 741 mmHg 91%
09:00 +22°C° 0.4 mm 1 m/S 741 mmHg 91%
10:00 +23°C° 0.1 mm 1 m/S 741 mmHg 88%
11:00 +24°C° 0.1 mm 1 m/S 741 mmHg 86%
12:00 +24°C° 0.1 mm 1 m/S 741 mmHg 83%
13:00 +24°C° 0.9 mm 2 m/S 741 mmHg 84%
14:00 +24°C° 0.9 mm 2 m/S 741 mmHg 85%
15:00 +24°C° 0.9 mm 3 m/S 740 mmHg 86%
16:00 +23°C° 0.3 mm 2 m/S 740 mmHg 87%
17:00 +23°C° 0.3 mm 2 m/S 740 mmHg 88%
18:00 +23°C° 0.3 mm 2 m/S 740 mmHg 89%
19:00 +21°C° 0 mm 2 m/S 740 mmHg 90%
20:00 +21°C° 0 mm 2 m/S 740 mmHg 91%
21:00 +20°C° 0 mm 2 m/S 740 mmHg 92%
22:00 +20°C° 0 mm 2 m/S 740 mmHg 92%
23:00 +19°C° 0 mm 2 m/S 740 mmHg 93%

6 Juli, Montag

Zeit Temperatur Niederschläge Wind Luftdruck Luftfeuchtigkeit
00:00 +19°C° 0 mm 2 m/S 740 mmHg 94%
01:00 +18°C° 0 mm 2 m/S 740 mmHg 94%
02:00 +18°C° 0 mm 2 m/S 740 mmHg 93%
03:00 +18°C° 0 mm 2 m/S 740 mmHg 93%
04:00 +19°C° 0 mm 1 m/S 740 mmHg 92%
05:00 +20°C° 0 mm 1 m/S 740 mmHg 91%
06:00 +20°C° 0 mm 1 m/S 740 mmHg 90%
07:00 +22°C° 0 mm 1 m/S 741 mmHg 85%
08:00 +23°C° 0 mm 1 m/S 741 mmHg 81%
09:00 +25°C° 0 mm 1 m/S 741 mmHg 76%
10:00 +25°C° 0 mm 1 m/S 741 mmHg 72%
11:00 +26°C° 0 mm 1 m/S 741 mmHg 68%
12:00 +27°C° 0 mm 2 m/S 741 mmHg 65%
13:00 +28°C° 0 mm 2 m/S 741 mmHg 65%
14:00 +28°C° 0 mm 2 m/S 740 mmHg 64%
15:00 +28°C° 0 mm 2 m/S 740 mmHg 64%
16:00 +28°C° 0 mm 2 m/S 740 mmHg 67%
17:00 +28°C° 0 mm 2 m/S 740 mmHg 71%
18:00 +28°C° 0 mm 2 m/S 740 mmHg 74%
19:00 +26°C° 0 mm 1 m/S 740 mmHg 77%
20:00 +25°C° 0 mm 1 m/S 740 mmHg 81%
21:00 +23°C° 0 mm 1 m/S 740 mmHg 85%
22:00 +23°C° 0 mm 1 m/S 740 mmHg 86%
23:00 +22°C° 0 mm 1 m/S 740 mmHg 87%

7 Juli, Dienstag

Zeit Temperatur Niederschläge Wind Luftdruck Luftfeuchtigkeit
00:00 +21°C° 0 mm 2 m/S 739 mmHg 88%
01:00 +21°C° 0.1 mm 2 m/S 739 mmHg 89%
02:00 +20°C° 0.1 mm 2 m/S 739 mmHg 91%
03:00 +20°C° 0.1 mm 2 m/S 739 mmHg 92%
04:00 +20°C° 0 mm 2 m/S 739 mmHg 91%
05:00 +21°C° 0 mm 2 m/S 739 mmHg 90%
06:00 +21°C° 0 mm 2 m/S 739 mmHg 90%
07:00 +22°C° 0 mm 3 m/S 739 mmHg 85%
08:00 +25°C° 0 mm 3 m/S 739 mmHg 81%
09:00 +26°C° 0 mm 3 m/S 739 mmHg 76%
10:00 +27°C° 0 mm 3 m/S 739 mmHg 73%
11:00 +28°C° 0 mm 3 m/S 738 mmHg 71%
12:00 +29°C° 0 mm 3 m/S 738 mmHg 68%
13:00 +30°C° 0 mm 3 m/S 738 mmHg 68%
14:00 +30°C° 0 mm 3 m/S 738 mmHg 67%
15:00 +30°C° 0 mm 3 m/S 737 mmHg 67%
16:00 +30°C° 0.1 mm 3 m/S 737 mmHg 70%
17:00 +30°C° 0.1 mm 3 m/S 737 mmHg 74%
18:00 +29°C° 0.1 mm 3 m/S 737 mmHg 77%
19:00 +28°C° 0.1 mm 2 m/S 737 mmHg 80%
20:00 +26°C° 0.1 mm 2 m/S 737 mmHg 82%
21:00 +25°C° 0.1 mm 1 m/S 737 mmHg 85%
22:00 +24°C° 0.1 mm 1 m/S 737 mmHg 86%
23:00 +24°C° 0.1 mm 1 m/S 737 mmHg 87%

8 Juli, Mittwoch

Zeit Temperatur Niederschläge Wind Luftdruck Luftfeuchtigkeit
00:00 +23°C° 0.1 mm 1 m/S 737 mmHg 88%
01:00 +23°C° 0.3 mm 1 m/S 737 mmHg 88%
02:00 +22°C° 0.3 mm 1 m/S 736 mmHg 87%
03:00 +21°C° 0.3 mm 2 m/S 736 mmHg 87%
04:00 +21°C° 0.3 mm 2 m/S 736 mmHg 89%
05:00 +21°C° 0.3 mm 3 m/S 736 mmHg 91%
06:00 +20°C° 0.3 mm 3 m/S 736 mmHg 92%
07:00 +21°C° 0.1 mm 3 m/S 737 mmHg 92%
08:00 +22°C° 0.1 mm 3 m/S 737 mmHg 91%
09:00 +22°C° 0.1 mm 3 m/S 737 mmHg 90%
10:00 +24°C° 0 mm 3 m/S 737 mmHg 86%
11:00 +25°C° 0 mm 3 m/S 737 mmHg 82%
12:00 +26°C° 0 mm 3 m/S 738 mmHg 78%
13:00 +26°C° 0.1 mm 3 m/S 738 mmHg 79%
14:00 +26°C° 0.1 mm 4 m/S 738 mmHg 81%
15:00 +25°C° 0.1 mm 5 m/S 738 mmHg 82%
16:00 +25°C° 0.2 mm 5 m/S 738 mmHg 83%
17:00 +23°C° 0.2 mm 5 m/S 738 mmHg 85%
18:00 +22°C° 0.2 mm 5 m/S 738 mmHg 86%
19:00 +21°C° 0.1 mm 4 m/S 738 mmHg 87%
20:00 +20°C° 0.1 mm 3 m/S 738 mmHg 89%
21:00 +19°C° 0.1 mm 2 m/S 739 mmHg 90%
22:00 +19°C° 0.1 mm 3 m/S 739 mmHg 90%
23:00 +18°C° 0.1 mm 3 m/S 739 mmHg 90%
Mehr zeigen